Wind_Speed
26 27 28 29 30 32 33 34 36 37 38 39 40 41 41 42 44 45 46 47 47 48 49 49 49 49 49 50 50 50 50 50 50 49 49 48 47 47 47 48 48 49 49 50 50 51 51 52 52 53 53 52 51 50 48 47 46 46 45 44 43 42 41 40 39 38 38 37 35
25 26 27 29 30 31 32 33 34 35 36 37 38 39 40 41 43 44 45 46 47 47 47 47 48 48 48 49 49 50 50 50 49 49 48 48 47 46 46 47 47 48 48 48 49 50 51 51 52 53 53 53 52 51 50 48 47 46 46 45 44 42 41 41 40 39 38 37 35
25 26 27 29 30 31 32 32 33 34 35 36 37 38 39 40 42 43 44 45 46 46 46 46 47 47 47 48 48 49 49 49 49 48 48 47 46 46 46 46 46 47 47 47 48 49 50 51 52 53 53 53 53 52 51 49 48 47 46 45 44 43 42 41 40 39 38 37 35
27 27 28 29 30 31 32 33 34 35 35 36 37 38 39 40 41 42 43 44 44 45 45 45 45 45 45 46 46 47 48 48 48 47 47 46 46 45 45 45 45 46 46 46 46 47 48 50 51 52 53 54 54 53 52 50 48 47 46 46 45 44 43 42 41 40 38 37 35
28 29 30 31 32 33 33 34 35 36 36 37 38 39 40 40 41 42 42 43 44 44 44 43 43 43 44 44 45 45 46 46 46 46 46 45 45 44 44 44 44 45 45 45 45 46 47 48 50 51 52 53 54 54 52 51 49 48 47 46 45 45 44 43 41 40 38 36 35
30 31 32 33 33 34 35 35 36 36 37 38 39 39 40 41 41 42 42 43 43 42 42 42 42 42 42 43 43 44 44 45 45 45 45 45 44 44 43 43 44 44 44 45 45 45 46 47 49 51 52 53 54 54 53 51 50 48 47 47 46 45 44 43 42 40 38 36 34
31 32 33 34 34 35 35 36 36 37 37 38 39 40 40 40 41 41 42 42 42 41 41 40 40 41 41 41 42 43 43 43 44 44 44 44 43 43 43 43 43 43 44 44 44 44 45 46 48 50 52 53 54 54 53 52 51 49 48 47 46 45 44 43 42 40 38 36 34
33 34 34 34 35 35 36 36 36 36 37 38 38 39 39 40 40 41 41 41 41 41 40 40 40 40 40 40 41 42 42 42 43 43 43 43 42 42 42 42 42 43 43 43 44 44 44 45 47 49 51 53 54 54 54 53 51 49 48 47 46 46 45 44 42 40 38 35 34
35 36 36 36 36 36 36 36 36 36 36 37 38 38 38 39 39 39 40 40 40 40 40 39 39 39 39 39 40 41 41 42 42 42 42 42 42 42 42 42 42 42 43 43 43 43 44 45 46 48 50 52 53 54 53 53 51 49 47 46 46 46 45 44 42 40 37 35 34
37 37 37 37 36 36 36 36 36 36 36 36 36 37 37 37 38 38 39 39 39 39 39 39 39 38 38 39 40 40 40 41 41 42 42 42 42 43 42 42 42 42 42 43 43 43 43 44 46 48 49 51 52 53 53 52 51 49 47 46 46 46 45 44 42 40 37 35 33
38 38 38 38 37 37 36 36 35 35 35 35 35 35 35 35 36 36 37 37 38 38 39 39 38 38 39 39 40 40 40 40 41 42 42 43 43 42 42 42 42 43 43 43 43 43 43 45 46 47 48 50 51 52 52 52 51 49 47 46 46 46 46 45 42 40 37 35 32
37 38 38 38 37 36 35 35 35 34 34 34 34 34 33 34 34 34 34 35 36 37 38 37 37 38 39 39 40 39 39 40 41 41 42 43 42 42 42 42 42 42 43 43 43 43 44 44 45 46 47 48 50 51 51 51 50 48 47 46 47 47 46 45 43 40 37 34 32
35 36 36 36 35 34 34 33 33 33 33 33 32 32 32 32 32 32 32 33 34 35 36 36 36 37 38 38 39 39 39 40 40 41 42 42 42 42 42 42 42 42 42 43 43 43 44 44 44 45 46 47 48 49 50 50 49 48 47 47 47 47 47 45 42 39 36 33 31
33 33 33 33 32 32 32 32 32 32 31 31 30 30 29 29 29 30 30 31 31 32 33 34 35 35 36 37 38 38 39 39 40 41 41 41 41 41 41 41 42 42 42 42 43 44 44 44 44 44 44 45 47 48 48 49 48 48 47 47 48 48 47 44 42 39 36 33 32
31 31 31 31 31 30 30 30 30 30 30 30 29 28 28 27 28 28 28 29 29 30 31 32 33 34 34 35 36 37 38 38 39 40 40 40 40 40 41 41 41 42 42 42 43 43 44 44 43 43 43 44 45 46 47 48 47 47 47 47 48 48 46 44 41 38 35 33 32
31 30 30 30 30 30 30 30 30 30 29 29 28 27 26 26 26 27 27 27 28 28 29 30 32 32 33 33 34 36 37 37 38 38 39 39 39 39 40 40 41 41 41 42 42 43 43 43 43 43 43 43 44 45 46 47 47 47 47 47 47 47 46 43 41 38 35 33 32
31 31 31 30 30 30 30 30 30 30 30 29 29 28 27 26 26 26 26 27 27 28 28 29 30 31 32 33 33 34 36 36 37 37 38 38 38 38 38 39 39 40 40 41 41 42 42 42 42 43 43 43 44 45 46 46 47 47 47 47 47 46 45 43 40 37 34 33 33
32 32 32 31 31 31 31 31 31 31 31 31 30 29 28 27 26 26 26 26 27 27 28 28 29 30 31 32 33 34 35 36 36 36 37 37 37 37 37 38 38 39 40 40 41 42 42 42 43 43 43 43 44 44 45 46 47 47 47 47 47 46 45 42 40 37 34 33 33
33 33 32 32 32 32 32 32 32 32 32 32 32 32 30 29 27 27 27 27 27 27 27 28 28 29 30 31 32 33 34 35 35 36 36 36 36 36 36 36 37 38 39 40 40 41 42 42 43 43 44 44 44 44 45 46 47 47 47 47 47 46 44 42 39 36 34 33 34
34 34 33 33 33 32 32 32 32 32 32 33 33 33 32 31 29 28 28 27 27 27 27 27 28 29 29 30 31 32 33 33 34 34 35 35 35 35 36 36 36 37 38 39 39 40 41 42 43 44 44 44 44 45 45 46 47 47 48 47 46 45 44 42 39 36 34 34 35
36 35 35 34 34 33 33 32 32 32 32 32 33 33 32 32 31 30 29 28 27 27 27 27 28 28 29 29 30 31 31 32 32 33 33 34 34 35 35 35 35 36 37 38 38 39 40 42 43 44 44 44 44 45 45 46 47 48 48 47 46 45 43 41 39 36 35 35 35
37 37 37 36 35 35 34 33 33 32 32 32 32 33 33 32 32 31 30 29 28 28 28 29 29 29 29 30 30 31 31 31 32 32 33 33 33 34 34 34 35 35 36 37 38 39 40 41 42 43 43 44 45 45 46 47 47 48 47 46 45 45 43 41 39 37 36 36 36
38 38 38 38 37 37 36 35 34 33 33 33 33 33 33 33 33 32 32 31 30 30 30 31 31 31 31 31 31 31 32 32 33 33 33 33 33 33 33 34 34 35 36 37 37 38 39 40 41 42 43 44 45 46 46 47 47 47 47 46 45 44 43 42 39 38 37 37 37
39 39 39 39 39 39 38 37 36 35 34 34 33 33 34 34 34 34 34 33 33 33 33 33 33 33 33 33 33 33 33 33 34 34 34 34 34 33 33 33 34 35 36 36 37 38 38 39 40 41 43 44 45 46 47 47 47 46 46 45 44 44 43 42 40 39 38 38 37
40 40 40 40 40 40 39 39 38 37 36 35 34 34 34 34 34 35 35 35 35 35 35 35 35 35 35 35 35 35 35 35 35 35 35 35 34 34 34 34 34 35 36 36 37 38 38 39 39 40 42 43 45 45 46 46 46 45 45 44 44 44 43 42 41 40 39 39 38
42 42 42 41 41 40 40 39 39 38 37 36 35 34 34 34 34 34 35 36 36 36 37 37 37 37 36 36 36 36 36 36 36 35 35 35 35 34 35 35 35 35 36 37 37 38 38 38 39 40 41 42 44 45 45 45 45 45 44 44 44 44 43 42 41 41 40 39 38
44 44 43 43 42 41 40 40 39 38 37 36 36 35 34 34 34 34 34 35 36 36 37 37 37 37 37 37 37 36 36 36 36 35 35 35 34 35 35 35 35 36 37 37 37 37 37 38 38 39 40 41 42 43 44 44 44 44 44 44 44 44 44 43 42 41 40 39 38
47 46 45 44 43 42 40 40 39 38 38 37 36 35 35 34 34 34 34 34 35 35 36 36 36 36 36 36 36 36 36 35 35 35 35 34 34 34 34 35 35 36 37 37 37 37 37 37 37 37 39 40 41 41 42 42 43 43 44 44 44 45 44 43 42 41 40 39 38
49 48 47 45 44 42 41 40 39 39 38 38 37 36 35 35 35 34 34 34 34 34 35 35 35 35 35 36 36 35 35 35 34 34 34 34 34 34 34 35 35 36 36 36 37 37 36 36 35 36 37 38 39 40 40 40 42 43 44 45 45 45 45 44 43 42 40 39 38
50 49 48 46 44 42 40 39 39 39 39 38 37 37 36 35 35 35 35 35 35 34 34 34 34 34 35 35 35 34 34 34 33 33 34 34 34 34 34 35 35 35 35 36 36 36 35 35 34 34 35 37 38 39 39 39 40 42 44 45 46 46 45 44 43 42 40 39 38
50 49 48 46 44 42 40 39 38 38 38 38 38 38 37 36 36 36 35 35 35 35 35 34 34 34 35 35 34 34 34 34 33 33 34 34 34 34 34 34 35 35 35 35 35 35 34 34 33 33 34 35 37 39 39 39 40 41 43 45 46 46 45 44 43 42 40 39 38
50 49 47 46 44 42 40 38 37 37 37 38 38 38 38 38 37 36 36 35 35 35 35 35 35 35 35 35 35 35 34 34 34 34 34 34 34 34 34 34 35 35 35 34 34 33 33 32 32 32 33 34 36 39 40 40 40 41 42 44 45 46 45 44 43 42 40 39 38
50 48 47 45 43 42 40 39 37 37 37 37 38 39 39 39 38 38 37 36 36 35 35 35 35 35 35 35 35 35 35 34 34 34 34 34 34 34 34 35 35 35 35 34 33 33 32 32 32 32 32 33 36 38 40 41 41 41 42 43 44 45 45 44 43 41 40 39 38
49 47 45 44 42 41 40 39 38 37 37 38 38 39 39 39 39 39 38 37 36 36 35 35 35 35 35 35 35 35 35 35 35 34 34 34 34 34 35 35 35 35 34 34 33 32 31 31 31 31 31 32 35 38 40 42 43 42 42 42 43 43 43 43 42 41 39 39 38
47 45 43 41 40 39 38 38 37 37 37 37 37 38 39 39 39 39 39 38 37 36 36 36 36 35 35 35 35 35 35 35 35 35 34 34 34 35 35 35 35 34 34 33 33 32 30 30 29 29 30 31 34 37 40 43 44 44 43 42 42 42 42 42 41 40 39 38 38
45 43 40 39 38 37 36 36 36 36 35 36 36 37 37 38 38 38 38 37 37 37 37 37 36 36 35 36 36 36 36 35 35 35 34 34 34 35 35 35 34 34 33 33 32 31 30 29 28 28 29 30 34 37 39 42 44 45 44 43 42 41 41 40 40 40 39 39 38
43 41 39 38 37 36 35 35 34 34 34 35 35 35 36 36 37 37 36 36 36 36 37 37 36 36 36 36 36 36 36 35 35 35 35 35 35 34 34 34 34 33 33 32 31 30 29 28 27 27 28 30 33 36 39 41 43 45 45 44 43 41 40 39 39 39 39 39 39
41 39 38 37 36 36 35 34 34 33 34 34 34 34 34 35 35 35 35 35 35 35 36 36 36 36 36 36 36 36 36 35 35 35 35 35 35 34 34 34 34 33 32 32 31 30 29 27 27 27 28 30 33 36 39 41 42 43 44 44 43 41 40 39 39 39 39 39 39
39 38 37 36 36 35 34 34 33 33 33 33 33 33 33 33 33 33 33 33 34 35 35 36 36 36 35 35 35 35 36 36 36 36 36 36 35 34 34 33 33 33 32 31 30 29 28 27 27 27 28 30 33 36 39 41 41 41 42 42 42 41 40 39 38 39 39 39 39
38 36 36 35 34 34 34 33 33 33 33 33 33 33 33 33 32 32 32 32 33 33 34 35 35 35 34 34 34 35 36 36 36 36 36 35 35 34 33 33 33 32 32 31 30 28 27 26 26 27 28 30 32 36 38 41 40 40 39 40 40 40 40 39 39 38 38 39 38
36 35 35 34 34 33 33 33 33 33 33 32 32 32 32 32 32 32 31 31 32 32 33 34 34 34 33 33 34 34 35 36 36 36 36 35 34 33 33 33 33 32 31 30 29 28 27 26 26 27 28 30 32 35 38 40 40 39 39 38 38 39 39 39 39 38 38 38 38
Wind_Direction
286 285 285 284 282 281 280 279 278 277 276 273 271 269 268 267 267 267 267 266 265 265 265 265 265 266 266 267 267 266 266 266 264 263 262 261 260 258 256 254 252 251 249 248 247 246 245 244 243 243 243 243 243 244 244 244 245 245 246 247 247 248 248 248 248 249 249 248 248
294 292 291 289 288 287 286 285 284 282 281 279 277 275 273 271 270 269 269 267 266 266 266 266 266 266 266 267 267 267 267 266 265 264 263 262 261 259 257 255 254 253 252 250 248 246 245 244 243 242 242 242 242 242 243 243 244 245 246 247 247 247 247 247 248 248 248 248 248
301 298 296 293 291 290 289 288 287 286 284 282 280 278 276 273 272 270 270 269 268 268 267 266 266 266 266 267 267 267 267 266 266 265 264 263 262 260 258 255 254 254 253 252 250 248 246 244 243 242 241 242 242 242 242 243 244 245 246 246 246 246 245 246 246 247 247 247 247
303 299 296 294 293 291 290 289 289 287 285 282 281 279 277 275 273 271 270 270 269 267 267 266 267 267 267 267 267 267 267 267 266 266 265 264 263 261 258 256 255 254 254 253 251 249 247 245 243 242 242 242 242 242 242 243 243 245 245 245 245 244 244 245 245 245 246 246 247
302 299 297 296 295 293 291 290 288 286 284 282 280 279 277 276 274 273 271 270 269 268 268 268 268 268 267 267 267 267 267 267 266 266 265 265 264 262 260 257 255 254 254 254 252 250 248 246 243 242 242 242 242 242 242 243 244 245 245 244 243 243 243 244 244 245 245 246 246
302 301 299 298 296 294 292 290 288 285 283 281 280 279 278 277 275 274 273 272 272 272 271 270 269 268 267 267 266 266 266 266 266 266 265 265 264 262 260 257 256 255 254 254 253 251 249 246 243 242 242 242 242 242 242 242 243 244 244 244 242 242 242 243 244 245 245 246 246
305 303 301 299 298 296 293 291 289 286 284 281 280 279 279 278 277 277 276 276 276 274 272 271 269 268 267 266 265 265 265 265 265 265 265 265 264 263 260 258 257 255 254 254 253 252 249 246 244 242 242 242 242 241 241 241 242 243 243 243 242 242 242 243 244 245 245 245 244
308 306 303 301 299 297 295 293 290 288 285 283 282 282 281 280 279 278 278 277 276 274 273 272 270 269 267 266 266 265 265 265 265 265 265 264 264 263 261 259 257 256 255 254 253 252 250 247 244 243 242 242 241 241 240 240 241 242 242 242 242 242 242 243 244 244 244 244 243
309 308 306 304 302 299 297 295 292 290 287 286 285 284 283 281 279 278 277 275 275 275 275 273 271 270 269 267 266 266 265 265 264 264 264 264 264 263 262 260 258 257 256 255 254 252 251 248 246 244 243 242 241 240 240 241 242 242 242 242 242 242 242 243 243 243 243 242 242
311 309 308 306 304 302 300 297 295 293 290 289 288 286 284 281 279 277 276 275 275 275 274 273 272 270 269 268 267 266 265 264 264 264 264 264 264 264 263 262 260 259 257 255 254 253 251 249 247 245 243 242 241 241 241 242 242 243 242 242 241 241 242 242 242 242 241 241 242
312 311 310 308 307 305 303 299 297 295 293 291 290 288 285 283 280 279 277 276 275 274 273 273 272 270 269 269 267 266 265 264 264 264 265 265 266 265 265 264 263 261 259 257 255 253 251 249 247 246 244 243 242 242 242 243 243 243 243 242 241 241 241 241 241 240 240 240 241
313 312 312 311 310 308 305 302 299 297 295 293 292 290 288 285 283 281 279 277 275 275 275 274 272 271 270 270 268 267 266 265 265 265 266 266 267 267 266 265 264 262 260 258 256 254 252 250 249 247 245 244 243 242 242 243 243 243 242 242 241 240 240 240 240 239 239 239 241
316 316 315 314 313 310 307 303 301 298 296 294 293 292 290 289 287 284 281 279 277 277 276 275 274 272 271 270 269 268 267 266 266 266 267 268 268 267 266 265 263 262 260 258 256 254 253 252 251 249 247 246 244 244 243 243 243 243 242 241 240 240 239 239 239 239 238 239 240
321 320 320 319 317 313 309 305 302 300 298 296 295 294 293 292 290 287 284 282 280 278 277 275 274 273 271 270 270 269 269 268 268 268 268 269 268 267 266 264 263 261 260 258 256 255 254 254 253 252 250 248 246 245 245 244 244 243 242 241 241 240 239 239 239 238 238 239 240
327 326 325 323 321 318 314 310 306 304 301 299 298 296 295 293 291 289 287 285 282 280 278 276 275 273 272 271 270 270 270 270 269 269 269 268 268 267 265 264 263 261 260 259 257 256 256 255 255 254 252 250 248 247 246 245 245 244 243 242 241 240 239 239 238 237 237 239 241
332 330 329 327 325 322 320 317 313 310 307 305 302 299 296 294 292 289 287 286 284 281 279 277 276 275 273 271 270 270 270 270 270 269 268 268 267 266 265 264 263 262 261 260 259 258 257 256 256 255 253 251 250 248 247 246 246 245 243 242 241 240 239 239 237 236 237 239 242
335 333 331 329 327 325 324 321 319 317 314 311 308 303 298 294 291 288 287 285 284 282 280 278 277 276 274 272 271 270 270 270 270 269 268 268 267 266 265 264 264 263 262 261 259 258 258 256 255 254 253 252 250 249 247 247 246 245 244 242 241 239 238 237 236 235 237 240 243
337 335 333 330 329 327 325 323 321 319 318 316 312 306 300 295 291 288 286 285 283 282 280 279 278 277 275 274 273 271 271 271 270 270 270 269 269 268 267 266 265 264 263 262 261 259 258 257 255 253 252 251 250 249 248 247 246 245 244 242 240 239 237 236 234 235 237 241 244
338 337 334 332 330 328 325 323 321 319 318 316 313 308 303 297 293 289 286 284 283 282 281 280 279 278 276 276 275 274 272 272 271 271 271 271 271 270 269 268 266 264 263 262 261 260 259 257 256 254 252 251 250 249 248 247 246 245 243 242 240 239 236 234 233 234 238 242 245
338 337 335 333 331 329 326 323 320 318 316 314 312 309 305 301 296 292 289 287 286 285 284 283 281 280 279 278 277 276 274 273 273 272 272 272 271 270 269 268 266 265 263 262 261 260 259 257 255 254 252 251 249 248 247 246 245 243 242 241 240 238 235 233 232 234 238 242 245
337 336 334 333 331 329 327 324 321 318 315 312 310 307 305 302 298 295 292 290 289 288 287 286 285 283 282 281 280 279 277 276 275 273 272 271 270 269 269 268 267 265 264 263 262 260 259 257 255 254 252 251 250 248 247 245 243 242 242 241 239 237 234 232 232 234 238 242 244
335 334 333 332 330 329 327 325 322 319 316 312 309 306 303 300 298 296 294 292 291 290 290 289 288 287 286 284 283 282 281 279 277 276 274 272 271 269 268 267 266 264 263 262 261 260 258 257 255 254 252 251 250 248 246 245 243 242 241 241 239 236 233 231 232 234 238 241 243
333 332 331 330 329 328 326 325 322 320 317 314 310 306 302 298 296 294 292 291 290 290 290 290 289 289 288 286 285 284 282 280 279 277 276 274 272 270 268 266 264 263 261 261 260 259 257 256 254 253 252 250 249 247 246 245 243 243 242 241 239 235 232 231 232 235 238 241 242
332 330 329 328 327 326 324 323 322 320 318 316 312 308 304 299 295 292 290 289 288 288 288 288 288 288 288 287 286 284 283 281 279 278 276 275 273 271 268 266 264 263 262 261 260 258 257 255 253 252 251 249 248 247 246 245 244 244 243 241 238 235 232 231 232 235 238 240 241
330 328 327 325 324 323 322 321 320 318 317 316 313 311 307 303 298 294 290 288 286 286 286 286 286 286 286 286 286 285 284 282 280 279 277 276 274 272 270 267 265 264 262 261 260 259 257 255 253 252 250 248 247 246 246 246 245 244 243 241 238 234 232 231 233 235 238 239 240
328 326 324 322 321 319 318 317 316 315 314 313 312 311 309 306 302 298 294 290 287 285 284 284 284 284 284 284 284 284 283 282 281 280 278 277 275 274 271 269 267 265 263 262 261 259 257 256 254 252 250 249 247 246 245 245 245 245 243 240 237 234 231 231 233 235 237 238 239
327 325 323 321 319 316 315 313 312 311 310 310 309 309 308 307 305 302 298 294 290 287 285 284 283 283 283 283 283 283 282 282 281 281 280 279 277 275 273 270 268 266 265 263 262 260 257 255 253 252 250 249 248 247 246 246 245 244 242 239 235 233 231 232 234 235 236 237 239
326 324 322 320 317 315 312 310 308 306 305 305 305 305 305 305 305 303 301 298 294 291 288 286 285 284 284 283 283 283 283 282 281 280 280 279 277 275 273 271 269 267 266 264 262 260 257 254 251 249 248 249 249 248 247 246 245 244 241 238 234 232 231 232 234 235 236 237 238
325 323 321 319 317 315 311 308 305 303 301 301 300 301 301 302 302 302 301 300 298 295 292 290 288 287 286 285 285 284 284 282 281 280 279 278 277 275 273 271 270 268 267 265 263 260 257 253 249 245 245 246 249 249 249 247 245 243 240 237 234 232 231 232 233 234 234 236 238
324 323 321 319 318 315 312 309 305 302 300 298 297 297 297 297 298 299 299 299 298 297 295 294 292 290 289 288 287 286 284 283 281 280 278 277 276 275 274 273 271 270 269 267 264 261 257 252 247 243 241 242 246 249 250 248 245 242 238 236 233 232 232 232 232 232 233 235 237
324 323 321 320 318 316 314 311 307 304 301 298 296 295 294 294 295 295 296 297 297 297 296 295 294 293 292 291 289 287 285 284 282 280 279 278 277 276 275 274 273 272 271 268 265 261 257 252 247 243 239 238 241 246 249 249 246 242 238 235 233 232 232 232 232 231 231 233 236
324 323 322 320 319 318 317 315 311 308 304 301 298 296 294 294 293 294 294 294 294 295 295 295 295 295 294 292 290 288 287 285 283 282 280 279 278 278 276 275 274 273 272 269 266 262 257 252 247 242 238 235 236 241 245 247 245 242 239 236 234 233 233 232 231 230 230 232 235
325 323 322 322 321 321 320 319 316 313 309 306 302 299 297 296 295 294 294 294 294 294 295 295 295 295 294 292 290 289 287 285 284 282 281 280 279 278 277 276 274 273 272 270 267 262 257 252 247 243 239 235 234 236 240 242 243 242 240 238 236 235 234 233 231 230 230 232 235
325 324 323 323 323 323 323 322 320 317 314 311 307 304 301 299 298 297 296 295 295 295 294 294 293 292 291 290 288 287 286 285 283 282 281 280 280 279 278 276 275 274 273 271 268 264 259 253 248 244 240 236 232 232 234 238 240 240 240 239 238 237 235 233 231 230 230 232 235
325 324 324 323 323 323 322 322 320 318 316 312 310 308 306 304 302 300 299 297 296 295 295 293 292 290 289 288 287 286 285 284 283 282 281 280 279 279 278 277 277 276 274 272 269 266 261 255 250 245 240 234 230 229 231 234 236 238 239 240 239 238 236 233 231 230 230 233 236
325 324 323 322 321 321 320 319 318 316 314 312 310 309 308 306 305 303 301 299 298 297 296 294 293 291 289 288 286 286 285 284 284 282 281 280 279 278 278 278 278 277 275 272 270 266 262 258 253 246 239 233 229 228 228 231 234 236 238 239 239 238 236 233 231 230 231 233 237
324 323 322 321 320 319 318 318 316 315 313 311 310 309 308 307 306 304 302 300 299 298 297 296 294 292 291 289 287 286 285 284 283 281 280 279 278 278 279 279 278 277 276 273 270 267 263 259 253 244 236 232 229 227 227 229 232 234 236 237 238 238 236 234 232 231 232 234 237
323 323 322 321 320 319 318 317 316 314 312 312 311 310 309 308 306 304 302 300 298 297 297 296 294 293 291 290 288 287 285 284 282 280 279 278 278 278 279 279 279 278 277 275 271 267 263 259 250 241 234 231 228 226 225 227 230 233 234 235 237 237 236 234 233 233 234 236 238
323 323 322 321 320 319 318 317 316 314 313 312 311 311 310 308 306 303 301 299 297 296 296 295 294 292 290 289 287 285 284 283 281 279 278 278 278 278 279 279 279 279 278 276 272 268 264 259 247 239 234 231 228 225 224 225 228 231 232 233 234 235 235 235 234 234 236 238 240
323 323 323 322 321 320 319 317 316 315 313 312 311 310 309 308 306 304 301 299 297 295 295 294 293 292 289 287 285 283 283 282 281 279 278 278 279 278 278 278 278 278 278 276 273 269 265 260 248 239 234 230 228 225 224 223 226 228 230 230 231 232 233 234 234 235 237 239 241
323 323 323 323 322 321 319 317 316 315 314 312 310 309 308 308 306 304 302 299 297 295 293 292 292 291 288 285 283 282 281 281 280 279 279 279 279 278 277 277 278 278 278 276 274 270 266 260 249 239 232 229 227 225 224 223 224 225 226 227 228 228 230 231 233 235 236 238 241
Height
1456 1455 1454 1453 1452 1451 1451 1450 1449 1448 1448 1447 1446 1446 1446 1445 1444 1443 1443 1442 1441 1441 1440 1439 1439 1438 1437 1437 1436 1436 1436 1437 1437 1438 1438 1439 1440 1441 1441 1441 1441 1441 1442 1443 1444 1444 1445 1445 1445 1446 1446 1446 1447 1448 1449 1450 1451 1452 1453 1454 1455 1455 1456 1457 1458 1459 1459 1460 1461
1454 1453 1452 1451 1450 1449 1448 1447 1446 1446 1445 1444 1444 1443 1443 1442 1441 1441 1440 1439 1439 1438 1437 1437 1436 1436 1435 1434 1434 1434 1434 1434 1434 1435 1435 1436 1436 1437 1438 1438 1438 1438 1438 1439 1440 1441 1441 1441 1441 1442 1442 1443 1444 1445 1445 1446 1447 1449 1450 1451 1451 1452 1453 1453 1454 1455 1456 1457 1458
1452 1451 1450 1449 1448 1447 1446 1445 1444 1443 1442 1442 1441 1441 1440 1440 1439 1438 1437 1436 1436 1436 1435 1434 1434 1433 1433 1432 1431 1431 1431 1431 1431 1432 1432 1433 1433 1434 1435 1435 1435 1435 1435 1436 1436 1437 1437 1438 1438 1438 1438 1439 1440 1441 1442 1442 1444 1445 1446 1447 1448 1449 1449 1450 1451 1452 1454 1455 1455
1451 1450 1448 1447 1446 1445 1444 1443 1442 1441 1440 1440 1439 1438 1437 1437 1436 1435 1435 1434 1434 1433 1432 1432 1431 1431 1430 1430 1429 1428 1428 1428 1428 1429 1429 1430 1430 1431 1431 1431 1431 1431 1431 1432 1433 1434 1434 1435 1435 1435 1435 1436 1436 1437 1438 1439 1441 1442 1443 1444 1445 1445 1446 1446 1448 1449 1450 1451 1452
1449 1448 1447 1446 1444 1443 1442 1441 1440 1439 1439 1438 1437 1436 1435 1434 1433 1433 1432 1431 1431 1430 1430 1430 1429 1429 1428 1427 1426 1426 1425 1425 1425 1426 1426 1426 1427 1428 1429 1429 1429 1428 1428 1429 1430 1431 1431 1432 1432 1432 1432 1432 1433 1434 1435 1436 1437 1438 1440 1441 1441 1441 1442 1443 1444 1446 1447 1448 1449
1448 1447 1446 1444 1443 1442 1441 1440 1439 1438 1437 1436 1435 1434 1432 1431 1431 1430 1430 1429 1428 1428 1428 1428 1427 1426 1426 1425 1424 1424 1423 1422 1422 1422 1423 1423 1424 1425 1426 1426 1426 1426 1426 1426 1426 1427 1428 1429 1429 1429 1429 1429 1429 1430 1431 1432 1433 1434 1436 1437 1437 1438 1439 1440 1441 1443 1444 1445 1446
1446 1445 1444 1443 1441 1440 1439 1438 1437 1436 1435 1434 1432 1431 1430 1430 1429 1428 1427 1426 1426 1426 1426 1425 1425 1424 1423 1423 1422 1421 1421 1420 1420 1420 1420 1421 1421 1422 1422 1423 1423 1423 1423 1423 1424 1425 1425 1426 1426 1426 1426 1426 1426 1426 1427 1428 1429 1430 1432 1433 1434 1435 1436 1437 1438 1440 1441 1442 1443
1445 1443 1442 1441 1440 1438 1437 1436 1435 1434 1433 1431 1430 1429 1428 1428 1427 1426 1425 1424 1424 1423 1423 1422 1422 1421 1421 1421 1420 1419 1418 1418 1417 1417 1417 1418 1418 1419 1419 1420 1421 1421 1421 1421 1421 1422 1422 1423 1423 1423 1423 1423 1423 1423 1423 1424 1425 1427 1428 1430 1431 1432 1433 1434 1435 1437 1438 1439 1440
1443 1441 1440 1439 1437 1436 1435 1433 1432 1431 1430 1428 1427 1426 1426 1425 1424 1424 1423 1422 1421 1421 1420 1420 1419 1419 1419 1418 1417 1417 1416 1416 1415 1415 1415 1415 1415 1416 1416 1417 1417 1418 1418 1418 1418 1419 1419 1420 1420 1420 1420 1420 1420 1421 1421 1422 1423 1424 1426 1427 1428 1429 1430 1431 1432 1434 1435 1436 1437
1440 1439 1438 1436 1435 1433 1432 1431 1429 1428 1427 1426 1425 1424 1423 1422 1422 1421 1420 1420 1419 1418 1417 1417 1416 1416 1416 1415 1415 1414 1414 1413 1413 1412 1412 1412 1412 1413 1413 1414 1414 1415 1415 1415 1416 1416 1416 1417 1417 1417 1417 1417 1418 1418 1419 1420 1421 1421 1423 1424 1425 1426 1427 1428 1430 1431 1432 1433 1434
1438 1436 1435 1433 1432 1431 1429 1428 1426 1425 1424 1423 1421 1421 1421 1420 1419 1418 1418 1417 1416 1416 1415 1414 1414 1414 1413 1413 1412 1412 1411 1411 1411 1410 1410 1410 1410 1410 1410 1411 1411 1411 1411 1412 1412 1413 1413 1413 1413 1413 1414 1414 1415 1416 1416 1417 1418 1419 1420 1421 1423 1424 1424 1425 1426 1428 1429 1431 1431
1436 1434 1432 1431 1429 1428 1426 1425 1423 1422 1421 1420 1419 1418 1417 1417 1416 1416 1416 1415 1414 1413 1412 1412 1411 1411 1411 1410 1409 1409 1409 1409 1408 1407 1407 1407 1407 1407 1407 1407 1408 1408 1408 1409 1409 1409 1410 1409 1410 1410 1411 1411 1412 1412 1413 1414 1415 1416 1417 1418 1420 1421 1421 1422 1424 1425 1427 1428 1429
1433 1432 1430 1428 1427 1425 1424 1422 1421 1420 1418 1417 1416 1416 1415 1414 1414 1413 1413 1412 1411 1410 1410 1409 1408 1408 1407 1407 1406 1406 1406 1406 1405 1405 1404 1404 1404 1404 1404 1405 1405 1405 1405 1406 1406 1406 1406 1406 1406 1407 1408 1408 1409 1409 1410 1411 1412 1413 1414 1416 1417 1418 1419 1420 1421 1423 1424 1425 1426
1431 1430 1428 1426 1425 1423 1421 1420 1418 1417 1416 1415 1414 1413 1412 1411 1411 1410 1410 1409 1408 1408 1407 1406 1406 1405 1405 1404 1403 1403 1403 1403 1402 1402 1402 1401 1401 1401 1402 1402 1402 1402 1402 1402 1403 1403 1403 1403 1403 1404 1405 1405 1406 1406 1407 1408 1409 1410 1411 1413 1414 1415 1416 1418 1419 1421 1422 1422 1423
1429 1427 1426 1424 1423 1421 1419 1418 1416 1415 1413 1412 1411 1411 1410 1409 1408 1407 1407 1406 1406 1405 1405 1404 1403 1402 1402 1401 1401 1400 1400 1400 1400 1399 1399 1399 1399 1399 1399 1399 1399 1399 1399 1400 1400 1400 1400 1400 1400 1401 1402 1402 1403 1403 1404 1405 1406 1407 1408 1410 1411 1412 1414 1416 1417 1418 1419 1420 1421
1427 1426 1424 1422 1421 1419 1417 1416 1414 1413 1411 1410 1409 1408 1407 1406 1406 1405 1404 1403 1403 1402 1402 1401 1400 1400 1399 1399 1398 1398 1397 1397 1397 1396 1396 1396 1396 1396 1396 1396 1396 1396 1397 1397 1397 1397 1397 1397 1397 1398 1399 1399 1400 1401 1401 1402 1403 1404 1405 1406 1408 1410 1412 1413 1415 1416 1416 1417 1419
1425 1424 1422 1421 1419 1417 1416 1414 1412 1411 1409 1408 1407 1406 1405 1404 1403 1402 1401 1401 1400 1400 1399 1398 1398 1397 1397 1396 1396 1395 1395 1394 1394 1393 1393 1393 1393 1393 1393 1393 1394 1394 1394 1394 1394 1394 1394 1394 1395 1395 1396 1396 1397 1398 1398 1399 1400 1401 1402 1403 1405 1407 1409 1411 1412 1413 1414 1415 1416
1424 1422 1421 1419 1417 1416 1414 1412 1411 1409 1408 1406 1405 1404 1403 1402 1401 1400 1399 1398 1398 1397 1396 1396 1395 1395 1394 1393 1393 1392 1392 1391 1391 1391 1390 1390 1390 1391 1391 1391 1391 1391 1391 1391 1392 1392 1392 1392 1392 1393 1393 1394 1395 1395 1396 1396 1397 1398 1399 1401 1402 1404 1406 1408 1409 1410 1411 1412 1413
1422 1421 1419 1417 1416 1414 1412 1411 1409 1408 1406 1405 1404 1402 1401 1400 1399 1398 1397 1396 1395 1395 1394 1393 1393 1392 1391 1391 1390 1390 1389 1389 1388 1388 1387 1387 1387 1387 1387 1388 1388 1388 1388 1389 1389 1389 1390 1390 1391 1391 1391 1391 1392 1392 1393 1393 1394 1395 1396 1397 1399 1401 1403 1405 1406 1408 1409 1410 1411
1421 1419 1417 1416 1414 1412 1411 1409 1408 1406 1405 1403 1402 1401 1400 1399 1398 1397 1396 1394 1393 1393 1392 1391 1390 1390 1389 1388 1388 1387 1386 1386 1386 1385 1385 1385 1384 1384 1384 1385 1385 1385 1385 1385 1386 1386 1387 1387 1388 1388 1388 1389 1389 1390 1390 1391 1391 1391 1392 1394 1396 1398 1400 1402 1404 1405 1406 1407 1408
1419 1417 1416 1414 1413 1411 1409 1407 1406 1404 1403 1401 1400 1399 1398 1397 1396 1395 1394 1393 1392 1391 1390 1389 1388 1387 1386 1386 1385 1384 1384 1383 1383 1382 1382 1382 1381 1381 1381 1381 1382 1382 1382 1382 1382 1383 1383 1384 1385 1385 1386 1386 1386 1387 1387 1387 1388 1388 1389 1391 1393 1396 1398 1400 1401 1402 1403 1404 1405
1417 1416 1414 1412 1411 1409 1407 1406 1404 1403 1401 1400 1398 1397 1396 1395 1394 1393 1392 1391 1390 1389 1388 1387 1386 1385 1384 1384 1383 1382 1381 1381 1380 1380 1379 1379 1378 1378 1378 1379 1378 1378 1378 1378 1378 1379 1380 1381 1381 1382 1383 1383 1384 1384 1384 1385 1385 1386 1387 1389 1391 1393 1395 1397 1398 1399 1400 1401 1402
1416 1414 1412 1411 1409 1407 1406 1404 1402 1401 1399 1398 1396 1395 1394 1393 1392 1391 1390 1389 1388 1387 1386 1385 1384 1383 1382 1381 1380 1380 1379 1378 1377 1377 1376 1376 1376 1376 1376 1376 1375 1375 1375 1375 1375 1376 1376 1377 1378 1379 1380 1380 1381 1381 1381 1382 1382 1383 1385 1386 1388 1390 1392 1394 1395 1396 1398 1399 1399
1414 1412 1411 1409 1407 1405 1403 1402 1400 1399 1397 1396 1394 1393 1392 1391 1389 1388 1387 1386 1386 1384 1383 1382 1381 1380 1379 1379 1378 1377 1376 1375 1375 1374 1373 1373 1373 1373 1373 1372 1372 1372 1371 1371 1371 1372 1373 1374 1375 1375 1376 1377 1378 1378 1379 1380 1381 1381 1383 1384 1386 1387 1389 1391 1392 1394 1395 1396 1396
1412 1410 1409 1407 1405 1403 1401 1400 1398 1396 1395 1393 1392 1391 1389 1388 1387 1386 1385 1384 1383 1381 1381 1380 1379 1378 1377 1376 1375 1374 1373 1373 1372 1371 1371 1370 1370 1370 1370 1369 1369 1369 1368 1368 1369 1369 1370 1371 1371 1372 1373 1374 1375 1376 1376 1377 1378 1379 1381 1382 1383 1385 1386 1388 1389 1391 1392 1393 1393
1410 1408 1406 1405 1403 1401 1399 1397 1396 1394 1392 1391 1390 1388 1387 1385 1384 1383 1382 1381 1380 1379 1378 1377 1376 1375 1374 1373 1372 1371 1371 1370 1369 1369 1368 1368 1367 1367 1366 1366 1366 1366 1365 1365 1366 1366 1367 1368 1368 1369 1370 1371 1372 1373 1374 1375 1376 1377 1378 1379 1381 1382 1383 1385 1386 1387 1389 1390 1390
1407 1406 1404 1402 1400 1398 1396 1395 1393 1391 1390 1388 1387 1386 1384 1383 1381 1380 1379 1378 1377 1376 1375 1374 1373 1372 1371 1370 1369 1368 1368 1367 1366 1366 1365 1365 1365 1364 1363 1363 1363 1362 1362 1363 1363 1364 1365 1366 1366 1366 1367 1367 1369 1370 1371 1372 1373 1374 1376 1377 1378 1379 1380 1381 1383 1384 1386 1386 1387
1405 1402 1401 1399 1397 1396 1394 1392 1390 1389 1387 1386 1384 1383 1381 1380 1379 1377 1376 1375 1374 1373 1371 1371 1370 1369 1368 1367 1366 1366 1365 1364 1364 1363 1362 1362 1361 1361 1361 1360 1360 1359 1359 1360 1361 1362 1362 1363 1364 1364 1364 1364 1365 1366 1368 1369 1370 1371 1372 1373 1375 1376 1377 1379 1380 1381 1382 1383 1384
1401 1399 1397 1396 1394 1392 1391 1389 1387 1386 1384 1383 1381 1380 1378 1377 1376 1374 1373 1372 1371 1370 1369 1368 1367 1366 1365 1364 1363 1363 1362 1361 1361 1360 1360 1359 1358 1358 1357 1357 1357 1356 1357 1357 1358 1359 1360 1361 1361 1362 1362 1362 1362 1363 1365 1366 1367 1368 1369 1370 1371 1372 1374 1376 1377 1378 1380 1380 1381
1399 1396 1394 1392 1391 1389 1387 1386 1384 1382 1381 1380 1378 1377 1375 1374 1373 1371 1370 1369 1368 1366 1366 1365 1364 1363 1362 1361 1361 1360 1359 1358 1358 1357 1357 1356 1355 1355 1354 1354 1354 1354 1354 1355 1355 1356 1357 1358 1359 1360 1361 1361 1360 1360 1361 1362 1363 1364 1365 1366 1367 1369 1371 1372 1374 1375 1376 1377 1378
1396 1393 1391 1389 1387 1386 1384 1382 1381 1379 1378 1376 1375 1374 1372 1371 1370 1368 1367 1366 1365 1364 1363 1362 1361 1360 1359 1358 1357 1357 1356 1355 1355 1354 1354 1353 1352 1352 1352 1351 1351 1351 1351 1352 1353 1353 1354 1355 1356 1357 1358 1359 1358 1357 1357 1358 1359 1360 1361 1362 1363 1365 1367 1369 1371 1372 1373 1374 1375
1392 1390 1387 1386 1384 1382 1381 1379 1378 1376 1375 1373 1372 1371 1369 1368 1367 1366 1365 1363 1362 1361 1360 1359 1358 1357 1356 1355 1354 1354 1353 1352 1352 1351 1351 1350 1350 1350 1349 1349 1348 1348 1348 1349 1350 1351 1351 1352 1353 1354 1356 1357 1356 1355 1354 1354 1356 1357 1358 1359 1360 1362 1364 1366 1367 1369 1370 1371 1372
1389 1387 1384 1382 1380 1379 1377 1376 1374 1373 1372 1370 1369 1368 1366 1365 1364 1363 1362 1361 1360 1358 1357 1356 1355 1354 1353 1352 1351 1351 1350 1350 1349 1348 1348 1347 1347 1347 1346 1346 1346 1346 1346 1346 1347 1348 1348 1349 1350 1351 1353 1354 1355 1354 1352 1352 1353 1354 1355 1356 1358 1359 1361 1363 1364 1366 1367 1368 1369
1386 1384 1381 1379 1377 1376 1374 1373 1371 1370 1369 1367 1366 1365 1364 1362 1361 1360 1359 1358 1357 1356 1355 1354 1352 1351 1351 1350 1349 1348 1347 1347 1346 1346 1345 1345 1345 1344 1344 1343 1343 1343 1343 1344 1344 1345 1346 1346 1347 1349 1350 1351 1353 1353 1352 1351 1351 1351 1352 1354 1355 1357 1358 1360 1361 1363 1364 1365 1366
1384 1381 1379 1377 1376 1374 1372 1371 1369 1368 1366 1365 1363 1362 1361 1360 1359 1357 1356 1356 1354 1353 1352 1351 1350 1349 1348 1347 1346 1345 1345 1344 1343 1343 1342 1342 1342 1341 1341 1340 1340 1341 1341 1341 1341 1342 1343 1344 1345 1346 1347 1349 1350 1351 1351 1350 1349 1349 1350 1351 1353 1354 1356 1357 1359 1360 1361 1362 1363
1382 1380 1378 1376 1374 1372 1371 1369 1367 1366 1364 1363 1361 1360 1358 1357 1356 1355 1354 1353 1352 1351 1349 1348 1347 1346 1345 1344 1343 1342 1342 1341 1341 1341 1340 1340 1339 1339 1338 1338 1338 1338 1338 1339 1339 1340 1340 1341 1342 1343 1345 1346 1347 1348 1349 1348 1347 1346 1347 1349 1350 1352 1353 1355 1356 1357 1359 1360 1361
1380 1378 1376 1374 1372 1371 1369 1367 1366 1364 1362 1361 1359 1358 1356 1355 1354 1352 1351 1351 1349 1348 1346 1346 1345 1344 1342 1342 1341 1340 1339 1339 1338 1338 1337 1336 1336 1336 1336 1335 1335 1335 1336 1336 1337 1337 1338 1339 1340 1341 1342 1343 1344 1345 1346 1347 1345 1345 1345 1346 1348 1349 1351 1352 1354 1355 1356 1356 1357
1379 1376 1375 1372 1370 1368 1367 1365 1364 1362 1360 1359 1357 1356 1355 1353 1352 1351 1349 1348 1347 1345 1344 1343 1342 1341 1340 1339 1338 1337 1336 1336 1335 1335 1334 1334 1333 1333 1333 1333 1332 1332 1333 1334 1334 1335 1336 1336 1337 1338 1339 1340 1341 1342 1343 1344 1344 1343 1342 1343 1345 1347 1349 1350 1351 1352 1353 1354 1355
1376 1375 1373 1371 1369 1366 1365 1363 1362 1360 1358 1356 1355 1354 1352 1351 1350 1348 1347 1346 1345 1343 1342 1341 1340 1339 1338 1337 1336 1335 1334 1333 1332 1332 1331 1331 1331 1331 1331 1330 1330 1330 1330 1331 1331 1332 1333 1334 1335 1336 1336 1337 1337 1339 1340 1341 1341 1341 1341 1341 1343 1345 1346 1348 1349 1350 1350 1351 1352
1375 1373 1371 1369 1367 1365 1363 1361 1360 1358 1356 1355 1353 1351 1350 1349 1347 1346 1345 1344 1342 1341 1339 1338 1337 1336 1336 1335 1333 1332 1331 1330 1330 1329 1328 1328 1328 1328 1328 1328 1327 1327 1327 1328 1329 1329 1330 1331 1332 1333 1334 1334 1335 1336 1337 1338 1339 1340 1339 1339 1340 1342 1343 1345 1346 1347 1348 1348 1350
1373 1371 1369 1367 1365 1363 1361 1359 1357 1356 1354 1353 1351 1350 1348 1347 1345 1344 1343 1341 1340 1339 1337 1336 1335 1334 1333 1332 1331 1330 1329 1328 1327 1326 1326 1326 1326 1326 1325 1325 1325 1324 1325 1325 1326 1326 1327 1328 1329 1330 1331 1331 1332 1333 1334 1335 1336 1337 1337 1337 1338 1339 1341 1342 1344 1345 1346 1346 1347